{"data":{"norad_id":56008,"epoch":"2026-05-24T22:42:58.986720Z","epoch_age_seconds":73440,"freshness":"FRESH","line1":"1 56008U 23042Y   26144.94651605 -.00000482  00000+0 -79911-5 0  9990","line2":"2 56008  43.0052 348.7897 0001445 265.7219  94.3468 15.27576331174520","mean_motion":15.27576331,"eccentricity":0.0001445,"inclination_deg":43.0052,"raan_deg":348.7897,"arg_perigee_deg":265.7219,"mean_anomaly_deg":94.3468,"bstar":-7.9911e-6,"rev_number":17452,"period_min":94.266975127674,"perigee_km":482.06863938916,"apogee_km":484.05152534596,"semimajor_km":6861.1970823676,"source":"CELESTRAK","updated_at":"2026-05-25T13:38:17.925895Z"}}